Weather in Yazovo

Russia / Omsk Oblast     54°45′46″N   75°32′40″E
temp.,
°C
wind,
m/s
gust,
m/s
humid.,
%
clouds,
%
prec.,
mm/h
press.,
hPa
HPBL,
m
12 may, wed
wed1200:00+12n33400 0.0 102333
03:00+10nw33420 0.0 102228
06:00+10wnw224891 0.0 102223
09:00+16nw3438100 0.0 1022355
12:00+21nw482559 0.0 10202318
15:00+22nw7824100 0.0 10182552
18:00+19nw61043100 0.1 1018736
21:00+16nw61148100 0.9 1019316
13 may, thu
thu1300:00+13n61252100 0.9 1020486
03:00+11n5960100 0.0 1020274
06:00+9nnw38705 0.0 1021328
09:00+13nnw5749100 0.0 10211017
12:00+15nw6834100 0.0 10201274
15:00+11nw6758100 0.4 1020665
18:00+10nw2476100 1.5 1019204
21:00+9nnw498786 0.1 1020291
14 may, fri
fri1400:00+8nnw4109474 0.1 1021239
03:00+7nnw379381 0.0 1023145
06:00+7n499599 0.0 1025252
09:00+11n576715 0.0 1026741
12:00+16n56290 0.0 10271073
15:00+18nnw45240 0.0 10261408
18:00+19nnw45240 0.0 10261426
21:00+15nw22350 0.0 102611
15 may, sat
sat1500:00+13wsw33380 0.0 102623
03:00+12sw46425 0.0 102582
06:00+12wsw49465 0.0 1025154
09:00+20wsw693013 0.0 1024432
12:00+25wsw793068 0.0 10221018
15:00+28w682854 0.0 10192763
18:00+26wsw47345 0.8 10181046
21:00+22wsw444676 0.3 101741
16 may, sun
sun1600:00+20sse355775 1.1 101771
03:00+17wsw456655 0.1 101667
06:00+17w486272 0.1 1016140
09:00+24w6114095 0.0 1015485
12:00+29w913286 0.0 10132556
15:00+28nw1113326 0.0 10132923
18:00+26nw810330 0.0 10142519
21:00+20n5105149 0.0 1017365